Flag for Germany

Past Weather in Backnang, Baden-Württemberg, Germany — Yesterday and Last 2 Weeks

Now
70 °F

Passing clouds.


Feels Like: 70 °F
Forecast: 75 / 65 °F
Wind: 1 mph from North

Location: Stuttgart-Echterdingen
Current Time: Aug 13, 2020 at 7:37:27 am
Latest Report: Aug 13, 2020 at 6:50 am
Visibility: N/A
Pressure29.95 "Hg
Humidity: 78%
Dew Point: 63 °F
Location of BacknangLocation

Past Weather in Backnang — Graph

°F

Backnang Temperature Yesterday

Maximum temperature yesterday: 93 °F (at 2:20 pm)
Minimum temperature yesterday: 66 °F (at 4:50 am)
Average temperature yesterday: 80 °F

High & Low Weather Summary for the Past Weeks

 TemperatureHumidityPressure
High95 °F (Jul 31, 2:50 pm)100% (Aug 5, 2:20 am)30.18 "Hg (Aug 5, 2:20 am)
Low48 °F (Aug 5, 5:50 am)17% (Jul 30, 6:50 pm)29.86 "Hg (Aug 3, 12:50 pm)
Average73 °F57%30.05 "Hg
* Reported Jul 29 6:20 am — Aug 13 6:20 am, Backnang. Weather by CustomWeather, © 2020

Note: Actual official high and low records may vary slightly from our data, if they occured in-between our weather recording intervals... More about our weather records

Backnang Weather History for the Previous 24 Hours

Scroll right to see more
 ConditionsComfort  
Time TempWeatherWind HumidityBarometerVisibility
6:20 am
Thu, Aug 13
68 °FPassing clouds.1 mph83%29.95 "HgN/A
5:50 am68 °FClear.2 mph83%29.95 "Hg10 mi
5:20 am70 °FClear.2 mph73%29.95 "Hg10 mi
4:50 am70 °FClear.1 mph78%29.95 "Hg10 mi
4:20 am70 °FClear.2 mph73%29.95 "Hg10 mi
3:50 am68 °FClear.2 mph83%29.95 "Hg10 mi
3:20 am70 °FClear.2 mph78%29.95 "Hg10 mi
2:50 am72 °FClear.2 mph73%29.95 "Hg10 mi
2:20 am72 °FClear.2 mph69%29.95 "Hg10 mi
1:50 am72 °FClear.2 mph73%29.98 "Hg10 mi
1:20 am73 °FClear.1 mph69%29.98 "Hg10 mi
12:50 am75 °FClear.2 mph65%29.98 "Hg10 mi
12:20 am77 °FClear.No wind57%29.98 "Hg10 mi
11:50 pm
Wed, Aug 12
77 °FClear.1 mph61%29.98 "Hg10 mi
11:20 pm77 °FClear.1 mph61%29.98 "Hg10 mi
10:50 pm77 °FClear.1 mph61%29.98 "Hg10 mi
10:20 pm77 °FClear.1 mph57%29.98 "Hg10 mi
9:50 pm77 °FClear.1 mph61%29.98 "Hg10 mi
9:20 pm79 °FClear.1 mph54%29.98 "Hg10 mi
8:50 pm82 °FClear.1 mph45%29.98 "Hg10 mi
8:20 pm84 °FSunny.3 mph43%29.98 "Hg10 mi
7:50 pm84 °FSunny.2 mph43%29.98 "Hg10 mi
7:20 pm86 °FSunny.1 mph40%29.95 "Hg10 mi
6:50 pm84 °FSunny.2 mph43%29.95 "Hg10 mi
6:20 pm86 °FScattered showers. Passing clouds.2 mph38%29.95 "HgN/A
5:50 pm86 °FPassing clouds.2 mph38%29.98 "HgN/A
5:20 pm88 °FPassing clouds.3 mph38%29.98 "HgN/A
4:50 pm90 °FPassing clouds.5 mph33%29.98 "HgN/A
4:20 pm90 °FPassing clouds.5 mph33%29.98 "HgN/A
3:50 pm93 °FPassing clouds.6 mph28%29.98 "HgN/A
3:20 pm93 °FPassing clouds.6 mph30%29.98 "HgN/A
2:50 pm93 °FPassing clouds.6 mph30%29.98 "HgN/A
2:20 pm93 °FSunny.6 mph32%30.01 "Hg10 mi
1:50 pm91 °FPassing clouds.5 mph34%30.01 "HgN/A
1:20 pm91 °FSunny.6 mph34%30.01 "Hg10 mi
12:50 pm91 °FSunny.6 mph36%30.01 "Hg10 mi
12:20 pm88 °FPassing clouds.3 mph40%30.04 "HgN/A
11:50 am88 °FPassing clouds.8 mph46%30.04 "HgN/A
11:20 am84 °FSunny.3 mph51%30.04 "Hg10 mi
10:50 am84 °FPassing clouds.3 mph51%30.04 "HgN/A
10:20 am82 °FPassing clouds.3 mph55%30.04 "HgN/A
9:50 am81 °FSunny.2 mph58%30.04 "Hg10 mi
9:20 am79 °FSunny.2 mph61%30.04 "Hg10 mi
8:50 am77 °FSunny.1 mph61%30.04 "Hg10 mi
8:20 am73 °FSunny.2 mph69%30.04 "Hg10 mi
7:50 am72 °FSunny.1 mph73%30.04 "Hg10 mi
7:20 am68 °FSunny.2 mph83%30.04 "Hg10 mi
Weather by CustomWeather, © 2020

See weather overview